STARLINK-2485

Last updated on Sat May 08 2021 00:02:05 GMT+0000 (Coordinated Universal Time)

1 48142U 21027BC 21127.58334491 .00055980 00000-0 40059-3 0 9999 2 48142 53.0477 191.7854 0002315 26.4575 258.1748 15.73196335 1775

Satellite not in orbit